GEFSNGP_850_meantemp_000.txt.gz
Temperature
13 14 14 14 13 13 12 13 13 13 13 15 13 13 14 14 13 11 11 11 10 10 9 9 8 8 8 7 7 6 6 5 5 4 4 4 4 3 3 3 2 2 2 2
13 13 13 13 13 12 12 12 12 13 13 14 14 13 13 13 12 11 11 10 9 9 8 8 8 8 7 6 6 5 4 4 4 4 3 3 3 2 2 2 2 1 1 1
12 11 12 13 12 12 12 12 13 13 13 13 13 11 12 12 11 11 10 10 9 8 8 7 7 6 6 5 4 3 3 3 3 2 2 2 1 1 0 0 -0 -0 -1 -1
10 12 13 13 12 12 12 12 13 12 11 11 10 11 12 13 12 11 10 8 7 7 7 6 5 4 4 3 2 2 2 2 2 1 1 0 -0 -0 -1 -1 -1 -2 -2 -2
9 10 12 12 12 12 13 10 11 11 11 12 11 11 11 12 12 11 9 7 6 6 5 4 3 3 3 2 2 2 2 2 1 0 -0 -1 -1 -1 -1 -2 -2 -3 -3 -3
8 9 11 12 12 13 13 10 10 10 10 10 10 8 9 10 10 9 7 5 5 5 4 3 3 2 2 2 2 1 1 0 -1 -1 -2 -2 -2 -2 -3 -3 -3 -3 -3 -3
8 9 9 10 11 12 11 10 8 9 9 9 9 8 9 9 8 7 6 6 5 4 3 3 2 2 1 1 0 -0 -1 -1 -2 -2 -2 -3 -3 -3 -3 -4 -4 -4 -5 -5
7 8 8 10 11 9 9 9 9 9 9 9 9 9 9 9 8 7 6 5 4 3 3 2 1 1 0 -0 -1 -1 -2 -2 -2 -2 -3 -3 -4 -4 -4 -5 -5 -5 -6 -7
8 8 9 10 10 10 10 9 9 9 9 9 9 9 8 7 6 5 4 3 3 2 1 0 -0 -0 -1 -1 -2 -2 -2 -2 -2 -3 -3 -4 -5 -5 -5 -6 -6 -7 -8 -8
9 8 8 9 9 9 9 9 8 8 8 8 7 7 7 6 5 3 2 2 1 1 0 -0 -1 -1 -1 -2 -2 -2 -3 -3 -3 -4 -5 -5 -5 -6 -6 -7 -8 -8 -8 -8
7 8 8 8 8 8 8 7 7 7 7 6 6 6 6 4 3 3 2 1 0 0 -0 -1 -1 -1 -2 -2 -3 -3 -3 -4 -4 -5 -6 -6 -6 -6 -7 -8 -9 -8 -8 -8
7 7 8 8 8 8 7 7 6 6 6 6 5 5 4 3 2 1 -0 -0 -0 -1 -1 -1 -2 -2 -2 -3 -4 -4 -4 -4 -5 -6 -6 -7 -7 -7 -7 -8 -9 -9 -8 -8
8 8 8 8 8 7 6 6 6 5 4 4 3 2 2 1 0 -0 -1 -1 -1 -1 -1 -2 -2 -2 -3 -3 -4 -4 -5 -6 -6 -7 -7 -8 -8 -9 -9 -9 -9 -9 -9 -9
8 8 7 7 7 6 5 4 3 3 2 1 0 -0 -0 -0 -1 -1 -1 -1 -1 -1 -1 -2 -3 -3 -4 -4 -5 -5 -6 -7 -7 -8 -8 -9 -9 -10 -10 -10 -10 -10 -9 -10
7 7 7 6 5 4 3 2 1 1 0 -0 -1 -1 -1 -1 -1 -1 -1 -1 -1 -2 -2 -3 -4 -4 -5 -5 -6 -6 -7 -8 -8 -9 -9 -9 -10 -10 -10 -10 -10 -10 -10 -10
7 6 6 6 5 4 4 3 2 1 0 -0 -1 -1 -1 -1 -1 -1 -1 -2 -3 -3 -3 -4 -4 -5 -5 -6 -6 -7 -8 -9 -9 -10 -10 -10 -10 -10 -10 -10 -10 -10 -10 -10
5 5 5 5 5 5 4 2 1 -0 -1 -1 -1 -1 -1 -1 -1 -2 -3 -3 -4 -4 -4 -5 -5 -5 -6 -6 -7 -8 -9 -9 -10 -10 -10 -10 -10 -10 -10 -10 -10 -10 -10 -10
5 5 5 5 4 3 2 1 0 -0 -1 -1 -1 -1 -1 -2 -2 -3 -4 -4 -3 -4 -4 -5 -5 -6 -6 -7 -8 -9 -10 -10 -10 -10 -10 -10 -10 -10 -10 -10 -11 -11 -11 -11
6 5 5 4 3 2 1 1 -0 -1 -1 -1 -1 -2 -2 -3 -3 -4 -4 -4 -4 -5 -5 -6 -6 -7 -7 -8 -10 -10 -10 -10 -10 -10 -11 -11 -10 -10 -11 -11 -11 -11 -11 -11
5 5 4 3 2 1 0 -0 -1 -1 -1 -2 -2 -2 -3 -3 -4 -4 -4 -5 -5 -6 -6 -7 -7 -8 -9 -9 -10 -11 -11 -11 -11 -11 -11 -11 -11 -11 -11 -11 -11 -11 -12 -12
4 4 3 2 1 0 -0 -1 -1 -1 -2 -2 -2 -3 -3 -3 -4 -5 -5 -5 -6 -6 -7 -7 -8 -8 -9 -10 -11 -11 -11 -11 -11 -11 -11 -11 -11 -12 -12 -12 -12 -12 -12 -12
3 3 2 1 0 -0 -1 -1 -2 -2 -2 -2 -3 -3 -4 -4 -5 -5 -6 -6 -7 -7 -8 -8 -9 -9 -10 -11 -11 -11 -11 -11 -11 -12 -12 -12 -12 -12 -12 -12 -12 -12 -12 -12
2 2 1 1 -0 -1 -1 -2 -2 -2 -2 -3 -3 -4 -5 -5 -6 -7 -7 -7 -8 -8 -9 -9 -9 -9 -11 -11 -11 -11 -11 -11 -11 -12 -12 -12 -13 -12 -12 -12 -13 -13 -13 -13
1 1 0 -0 -1 -2 -2 -2 -3 -3 -3 -4 -4 -5 -6 -6 -7 -7 -8 -8 -9 -9 -9 -9 -9 -10 -11 -11 -11 -11 -11 -12 -12 -12 -12 -12 -13 -13 -13 -13 -13 -13 -13 -13
0 0 -0 -1 -2 -2 -3 -3 -4 -4 -4 -5 -6 -6 -6 -7 -8 -9 -9 -9 -9 -9 -10 -10 -10 -10 -10 -10 -11 -11 -12 -12 -13 -13 -13 -13 -13 -13 -13 -13 -13 -13 -13 -13
-1 -1 -2 -2 -3 -3 -4 -4 -5 -5 -6 -6 -6 -7 -7 -8 -8 -9 -9 -10 -10 -10 -10 -10 -10 -11 -11 -11 -11 -12 -12 -13 -13 -13 -14 -14 -13 -13 -13 -13 -13 -13 -13 -13
-2 -2 -3 -3 -4 -4 -5 -5 -6 -6 -7 -7 -7 -8 -8 -9 -9 -10 -10 -10 -10 -10 -10 -10 -11 -11 -11 -12 -12 -12 -13 -13 -13 -14 -14 -14 -14 -14 -14 -14 -14 -14 -13 -13

GEFSNGP_850_meantemp_006.txt.gz
Temperature
11 11 10 11 11 10 11 11 11 11 11 13 13 12 12 12 12 11 11 10 9 9 8 8 8 7 7 6 5 5 5 4 4 3 3 3 3 3 3 2 2 2 2 1
11 11 12 12 11 10 11 10 11 12 12 12 12 12 12 12 12 11 10 10 9 8 8 7 7 6 5 5 4 4 3 3 3 3 3 2 2 2 2 2 1 1 1 0
10 11 13 12 11 10 10 10 10 11 11 11 11 11 12 12 12 12 11 10 9 8 7 6 6 5 4 4 4 3 3 3 2 2 2 2 1 1 1 1 0 -0 -1 -1
9 11 12 12 11 10 10 10 11 11 10 10 10 11 11 12 12 12 11 10 8 7 6 5 5 4 3 3 3 3 2 2 2 2 1 1 1 0 -0 -1 -1 -2 -2 -2
8 10 11 12 10 9 9 9 10 9 9 9 10 10 10 11 11 11 11 9 7 6 5 5 4 3 3 2 2 2 1 1 1 1 0 0 -0 -1 -2 -2 -2 -3 -3 -3
8 10 10 12 11 11 10 8 9 9 8 9 9 8 8 10 10 10 9 7 6 5 5 4 3 2 2 2 1 1 1 1 0 -0 -1 -1 -2 -2 -3 -3 -4 -4 -4 -4
9 10 10 11 10 11 10 10 8 9 9 9 8 8 9 8 8 7 6 5 5 4 4 3 2 2 1 1 0 0 0 -0 -0 -1 -2 -2 -3 -3 -4 -4 -4 -4 -4 -5
7 9 9 10 9 9 9 9 9 9 9 9 9 8 8 8 7 6 5 4 4 3 3 2 2 1 0 -0 -0 -0 -0 -1 -1 -2 -2 -3 -3 -4 -4 -5 -5 -5 -6 -7
8 8 8 9 9 10 10 9 9 9 8 8 8 8 7 7 6 5 4 4 3 2 2 1 0 -0 -1 -1 -1 -1 -1 -1 -2 -2 -3 -3 -4 -4 -5 -6 -7 -8 -9 -9
7 7 7 8 9 9 9 9 8 8 8 7 7 7 6 6 6 5 3 3 2 1 1 -0 -1 -1 -1 -1 -1 -1 -2 -2 -3 -3 -3 -4 -5 -5 -6 -7 -8 -9 -10 -9
7 7 7 8 8 9 8 8 8 7 7 7 6 6 6 5 5 4 3 2 1 0 -0 -0 -0 -1 -1 -2 -2 -2 -3 -3 -3 -4 -4 -5 -5 -7 -8 -9 -10 -10 -10 -10
6 6 5 7 8 8 8 7 7 6 6 6 6 5 4 4 3 2 1 1 0 -0 -1 -1 -1 -1 -2 -2 -3 -3 -4 -4 -4 -5 -5 -6 -7 -7 -9 -10 -10 -10 -10 -10
8 8 8 8 7 7 7 6 6 6 6 5 5 3 2 2 1 1 0 -0 -1 -1 -1 -1 -1 -2 -3 -3 -3 -4 -4 -5 -5 -6 -6 -7 -8 -9 -10 -10 -10 -10 -10 -10
7 7 6 6 6 6 6 6 6 6 5 4 3 1 0 -0 -0 -0 -0 -1 -1 -1 -1 -2 -2 -3 -3 -4 -4 -4 -5 -5 -6 -7 -7 -8 -9 -10 -11 -11 -11 -11 -11 -11
6 7 7 6 6 6 6 6 5 5 5 4 3 1 -1 -1 -1 -1 -1 -1 -1 -2 -2 -3 -3 -3 -3 -4 -4 -5 -6 -6 -7 -8 -9 -10 -10 -11 -11 -11 -11 -11 -11 -11
6 6 5 5 5 5 5 5 5 4 3 3 1 -0 -1 -1 -1 -1 -1 -2 -2 -2 -3 -3 -3 -3 -4 -4 -5 -6 -7 -7 -8 -9 -10 -10 -10 -11 -11 -11 -11 -11 -11 -11
5 5 5 5 5 5 4 4 4 3 2 1 0 -1 -1 -1 -1 -2 -2 -2 -2 -3 -3 -3 -3 -4 -5 -6 -6 -7 -7 -8 -9 -9 -10 -10 -11 -11 -11 -11 -11 -11 -11 -11
6 6 5 5 5 4 4 3 3 2 1 1 -0 -1 -1 -1 -2 -2 -2 -3 -3 -3 -3 -4 -4 -5 -6 -6 -7 -7 -8 -9 -9 -10 -11 -11 -11 -11 -11 -12 -12 -12 -12 -12
5 5 5 4 4 3 3 3 2 2 1 -0 -1 -1 -1 -2 -2 -2 -3 -3 -3 -3 -4 -5 -5 -6 -6 -7 -7 -8 -8 -9 -10 -11 -11 -11 -11 -11 -12 -12 -12 -13 -13 -13
5 5 4 4 3 3 2 2 1 1 0 -1 -1 -2 -2 -2 -3 -3 -3 -3 -4 -5 -5 -5 -6 -6 -7 -7 -8 -9 -10 -11 -11 -11 -11 -11 -11 -12 -12 -12 -13 -13 -13 -13
5 4 4 3 3 2 2 1 1 0 -1 -1 -2 -2 -2 -3 -3 -4 -4 -4 -5 -5 -6 -6 -6 -7 -8 -8 -9 -10 -11 -11 -11 -11 -11 -11 -12 -12 -13 -13 -13 -13 -14 -14
4 4 3 3 2 2 1 1 0 -1 -1 -2 -2 -2 -3 -3 -4 -4 -5 -5 -6 -6 -6 -7 -7 -8 -8 -10 -10 -10 -10 -11 -11 -11 -11 -12 -12 -12 -13 -13 -13 -14 -14 -14
3 3 2 2 1 1 1 0 -1 -1 -2 -2 -3 -3 -4 -4 -5 -5 -6 -6 -6 -7 -7 -8 -8 -9 -10 -10 -10 -10 -10 -11 -11 -11 -11 -12 -12 -13 -13 -13 -14 -14 -14 -14
2 2 2 1 1 0 -0 -1 -2 -2 -3 -3 -4 -4 -5 -5 -6 -6 -6 -7 -7 -8 -8 -9 -9 -10 -10 -10 -10 -10 -11 -11 -11 -11 -12 -12 -13 -13 -14 -14 -14 -14 -14 -14
1 1 1 0 -0 -1 -1 -2 -3 -3 -4 -4 -5 -5 -6 -6 -7 -7 -7 -8 -8 -8 -9 -9 -10 -10 -10 -10 -10 -11 -11 -11 -11 -12 -13 -13 -13 -13 -14 -14 -14 -14 -14 -14
0 0 -0 -1 -1 -2 -3 -3 -4 -4 -5 -6 -6 -7 -7 -7 -7 -8 -8 -8 -9 -9 -10 -10 -10 -10 -10 -11 -11 -11 -11 -11 -11 -12 -12 -13 -13 -13 -14 -14 -14 -14 -13 -13
-1 -1 -2 -2 -3 -3 -4 -5 -5 -6 -6 -7 -7 -7 -7 -8 -8 -8 -9 -9 -10 -10 -10 -10 -10 -10 -11 -11 -11 -11 -11 -12 -12 -12 -13 -13 -13 -13 -14 -14 -14 -13 -13 -13

GEFSNGP_850_meantemp_012.txt.gz
Temperature
15 15 15 15 15 15 15 16 17 18 18 19 18 17 15 13 12 11 10 9 8 8 8 7 7 6 6 5 5 5 4 4 3 3 2 2 1 1 1 0 0 -0 -1 -1
13 13 14 15 15 15 15 16 17 17 18 19 17 15 14 13 12 11 10 9 8 8 7 7 6 6 5 5 4 4 4 3 2 2 2 1 1 0 -0 -0 -1 -1 -1 -2
14 13 13 14 15 16 16 17 17 17 18 16 14 14 14 13 12 11 10 10 9 8 7 6 6 5 4 4 4 3 3 2 2 1 1 0 0 -0 -1 -1 -1 -2 -3 -3
13 13 13 17 15 16 16 17 17 17 16 15 15 12 11 11 11 11 11 10 10 8 6 6 5 4 4 4 3 3 2 1 1 1 0 -0 -1 -1 -1 -2 -2 -3 -4 -4
12 14 15 15 12 13 14 15 15 15 14 13 11 11 10 9 10 10 11 10 9 7 6 5 4 4 3 3 2 2 1 1 0 -0 -1 -1 -1 -1 -2 -3 -4 -4 -5 -5
12 13 14 16 13 12 14 15 12 13 12 11 12 14 12 9 10 10 10 9 8 6 5 4 3 3 3 2 2 1 1 0 -0 -1 -1 -1 -2 -2 -3 -4 -4 -5 -6 -6
13 14 16 14 11 12 15 16 11 11 11 11 13 12 9 9 9 9 8 8 6 5 4 3 3 2 2 2 1 1 0 -0 -1 -1 -2 -2 -3 -3 -4 -5 -5 -6 -6 -7
13 13 14 11 11 13 13 10 10 10 10 10 9 9 8 8 8 8 7 6 5 4 3 3 2 2 1 1 0 -0 -1 -1 -1 -2 -2 -3 -3 -4 -5 -6 -6 -6 -7 -8
14 13 10 9 11 10 10 10 9 9 10 10 9 8 8 8 7 7 6 5 4 3 3 2 2 1 0 -0 -0 -1 -1 -1 -2 -2 -3 -3 -4 -5 -5 -6 -7 -7 -8 -8
10 10 8 7 7 8 9 10 10 10 9 9 8 8 7 7 7 6 5 4 4 3 2 1 1 -0 -1 -1 -1 -1 -1 -2 -3 -3 -4 -4 -5 -5 -6 -7 -8 -8 -8 -9
10 9 8 7 7 8 10 10 9 9 8 8 8 7 7 6 6 5 4 3 2 2 1 0 -1 -1 -1 -1 -1 -2 -2 -3 -3 -4 -4 -5 -5 -6 -7 -8 -9 -9 -9 -9
12 10 10 9 7 9 9 8 8 8 7 7 7 7 6 5 5 4 3 2 1 0 -0 -1 -1 -1 -1 -2 -2 -3 -3 -4 -4 -5 -5 -6 -6 -7 -8 -9 -9 -9 -9 -10
9 8 8 7 7 8 8 8 7 7 7 7 6 6 5 4 3 3 2 1 0 -0 -1 -1 -1 -2 -2 -2 -3 -3 -4 -4 -5 -5 -6 -7 -7 -8 -8 -9 -9 -10 -10 -10
8 8 5 6 7 7 7 7 7 6 6 6 6 5 4 3 2 1 0 -0 -1 -1 -1 -1 -2 -2 -3 -3 -3 -4 -4 -5 -5 -6 -7 -7 -8 -9 -9 -9 -10 -10 -10 -10
6 7 7 7 7 6 7 6 6 6 6 5 5 4 3 1 -0 -1 -1 -1 -1 -1 -2 -2 -2 -3 -3 -3 -4 -4 -5 -5 -6 -7 -8 -8 -9 -10 -10 -10 -10 -10 -10 -10
6 7 7 6 6 6 6 6 6 5 5 4 3 3 2 0 -1 -1 -1 -1 -2 -2 -2 -2 -3 -3 -3 -4 -4 -5 -5 -6 -6 -7 -8 -9 -10 -10 -10 -10 -10 -10 -11 -11
5 4 5 6 6 6 5 5 5 4 3 3 2 1 1 -0 -1 -1 -2 -2 -2 -2 -3 -3 -3 -3 -4 -4 -5 -5 -6 -6 -7 -8 -9 -10 -10 -11 -11 -11 -11 -11 -11 -11
7 7 7 6 6 5 4 4 3 3 2 2 1 1 0 -1 -1 -2 -2 -2 -3 -3 -3 -3 -4 -4 -4 -5 -6 -6 -7 -7 -8 -10 -10 -11 -11 -11 -11 -11 -11 -12 -12 -12
6 6 6 5 5 4 4 3 3 2 2 2 1 0 -1 -1 -2 -2 -2 -3 -3 -3 -4 -4 -4 -5 -5 -6 -6 -7 -7 -9 -10 -10 -10 -11 -11 -11 -11 -12 -12 -12 -13 -13
5 5 5 4 4 3 3 3 2 2 2 1 0 -1 -1 -2 -2 -2 -3 -3 -4 -4 -4 -5 -5 -5 -6 -6 -7 -8 -9 -10 -10 -10 -11 -11 -11 -11 -12 -12 -12 -13 -13 -13
5 4 4 3 3 3 2 2 1 1 1 -0 -1 -1 -2 -2 -3 -3 -3 -4 -4 -5 -5 -5 -6 -6 -7 -7 -8 -9 -10 -10 -10 -11 -11 -11 -11 -12 -12 -12 -13 -13 -14 -14
4 3 3 3 2 2 1 1 0 0 -0 -1 -1 -2 -2 -3 -3 -4 -4 -5 -5 -5 -6 -6 -7 -7 -8 -9 -9 -10 -10 -10 -10 -11 -11 -11 -12 -12 -12 -12 -13 -13 -14 -14
3 3 3 2 1 1 0 -0 -0 -1 -1 -2 -2 -3 -3 -4 -4 -5 -5 -6 -6 -6 -7 -7 -7 -8 -9 -9 -9 -10 -10 -10 -10 -11 -11 -11 -11 -12 -13 -13 -13 -14 -14 -14
3 2 2 1 1 -0 -0 -1 -1 -1 -2 -3 -3 -4 -4 -5 -5 -6 -6 -7 -7 -7 -7 -8 -8 -9 -9 -9 -10 -10 -10 -10 -11 -11 -11 -11 -12 -13 -13 -13 -13 -13 -13 -13
2 1 1 0 -0 -1 -1 -1 -2 -3 -3 -4 -4 -5 -5 -6 -6 -7 -7 -7 -7 -8 -8 -8 -9 -9 -9 -10 -10 -10 -11 -11 -11 -12 -12 -12 -12 -12 -12 -13 -13 -13 -13 -12
1 0 -0 -1 -1 -2 -2 -3 -3 -4 -4 -5 -6 -6 -7 -7 -7 -7 -8 -8 -8 -8 -8 -9 -9 -9 -10 -10 -10 -11 -11 -11 -11 -11 -11 -12 -12 -12 -12 -12 -12 -12 -12 -12
-1 -1 -2 -2 -2 -3 -3 -4 -5 -5 -6 -7 -7 -7 -7 -8 -8 -8 -8 -8 -9 -9 -9 -9 -10 -10 -10 -10 -11 -11 -11 -11 -11 -12 -12 -12 -12 -12 -12 -12 -12 -12 -12 -12

GEFSNGP_850_meantemp_018.txt.gz
Temperature
13 14 14 14 14 14 14 15 16 18 18 17 16 15 15 16 15 14 13 12 10 9 8 8 7 7 7 7 6 6 6 5 5 4 4 3 3 2 2 1 1 1 1 -0
14 15 15 15 14 15 15 15 16 16 18 19 17 17 16 15 15 14 13 11 10 9 8 7 7 7 6 6 5 5 5 5 4 3 3 2 2 1 1 1 1 0 -0 -1
14 15 15 14 15 15 15 15 16 15 16 18 16 16 15 15 15 14 13 11 10 9 8 7 7 6 5 5 5 4 4 4 3 3 2 2 1 1 0 0 -0 -1 -1 -2
13 14 12 16 17 16 16 16 16 16 17 17 15 14 15 16 15 14 13 11 10 9 8 7 6 5 5 4 4 4 4 3 3 2 1 1 0 0 -0 -0 -1 -1 -2 -3
12 13 14 16 15 16 16 15 16 16 16 13 13 12 11 13 13 13 12 11 10 9 8 6 5 5 4 4 3 3 3 2 2 1 1 0 0 -0 -1 -1 -2 -2 -3 -4
11 12 13 14 14 15 16 15 16 16 15 12 12 10 9 10 11 11 10 10 9 8 7 6 5 4 3 3 3 3 2 1 1 0 -0 -0 -0 -1 -1 -2 -2 -3 -3 -4
11 11 13 13 14 14 14 13 13 15 14 12 11 11 9 9 9 9 9 8 8 7 6 5 4 3 3 3 2 2 1 1 0 -0 -0 -1 -1 -1 -2 -3 -3 -3 -4 -5
10 11 12 13 13 13 12 12 13 13 12 9 8 8 7 8 8 8 8 7 6 6 5 4 3 3 3 2 2 1 0 0 -0 -0 -1 -1 -2 -2 -3 -3 -4 -5 -5 -6
11 11 12 13 12 11 12 12 12 10 10 9 7 7 7 7 7 7 7 6 6 5 4 3 2 2 2 1 1 0 -0 -0 -0 -1 -1 -2 -3 -3 -3 -4 -5 -6 -7 -7
12 11 11 11 11 11 12 11 10 10 9 9 8 7 7 7 7 6 6 6 5 4 3 3 2 1 1 0 -0 -0 -0 -0 -1 -1 -2 -2 -3 -3 -4 -5 -6 -7 -7 -8
12 10 9 10 10 11 10 10 9 9 9 9 8 7 7 7 6 6 5 4 4 3 2 2 1 1 0 -0 -0 -0 -1 -1 -2 -2 -2 -3 -3 -4 -5 -6 -7 -8 -8 -8
11 10 9 9 9 9 9 9 9 8 8 8 8 7 7 6 6 5 4 4 3 2 1 1 0 -0 -0 -0 -1 -1 -1 -2 -2 -3 -3 -3 -4 -5 -5 -7 -8 -8 -8 -9
12 12 11 9 8 8 8 8 8 9 8 7 7 7 7 6 5 4 3 3 2 1 1 0 -0 -0 -1 -1 -1 -2 -2 -2 -3 -3 -4 -5 -5 -6 -7 -7 -8 -9 -9 -9
10 10 8 8 7 7 8 8 8 8 7 7 7 6 6 5 4 3 2 2 1 0 -0 -0 -1 -1 -1 -1 -2 -2 -2 -3 -3 -4 -5 -5 -6 -7 -8 -9 -9 -9 -9 -10
9 9 8 7 6 7 8 8 7 7 7 6 6 6 5 4 3 2 1 1 0 -0 -1 -1 -1 -1 -2 -2 -2 -3 -3 -4 -4 -5 -6 -6 -7 -8 -9 -9 -10 -10 -10 -10
7 7 7 6 6 6 7 7 7 6 6 6 5 5 4 3 2 1 0 -0 -1 -1 -1 -2 -2 -2 -2 -3 -3 -3 -4 -5 -5 -6 -7 -8 -9 -9 -9 -10 -10 -10 -10 -11
7 4 4 5 5 6 6 7 7 6 5 5 4 4 3 2 1 0 -0 -1 -1 -2 -2 -2 -2 -3 -3 -3 -4 -4 -5 -5 -6 -7 -8 -8 -9 -10 -10 -10 -10 -11 -11 -11
9 9 8 7 6 5 5 6 5 5 5 4 3 3 2 1 1 -0 -1 -2 -2 -2 -3 -3 -3 -3 -4 -4 -4 -5 -6 -6 -7 -8 -9 -9 -10 -10 -10 -10 -11 -11 -11 -11
7 6 5 5 6 6 5 5 5 4 4 3 3 2 1 0 -0 -1 -2 -2 -3 -3 -3 -3 -4 -4 -4 -5 -5 -6 -6 -7 -7 -9 -9 -10 -10 -10 -10 -11 -11 -11 -11 -12
5 5 5 5 5 5 5 4 4 4 3 3 2 1 1 -0 -1 -2 -3 -3 -3 -3 -4 -4 -4 -5 -5 -6 -6 -6 -7 -8 -9 -9 -10 -10 -10 -11 -11 -11 -11 -11 -12 -12
4 5 5 5 4 4 4 4 3 3 2 2 1 0 -0 -1 -2 -3 -3 -3 -4 -4 -5 -5 -5 -6 -6 -6 -7 -7 -8 -8 -9 -9 -10 -10 -11 -11 -11 -11 -11 -12 -12 -13
5 5 5 5 4 3 3 3 2 2 1 1 -0 -1 -1 -2 -3 -3 -4 -4 -4 -5 -5 -6 -6 -6 -7 -7 -7 -8 -8 -9 -10 -10 -10 -11 -11 -11 -11 -11 -12 -13 -13 -13
5 5 4 4 3 3 2 2 1 1 0 -0 -1 -2 -2 -3 -3 -4 -4 -5 -5 -6 -6 -6 -6 -7 -7 -7 -8 -8 -9 -10 -10 -10 -11 -11 -11 -12 -12 -12 -13 -13 -13 -13
4 4 3 3 2 2 1 0 0 -0 -1 -1 -2 -3 -3 -4 -4 -5 -5 -6 -6 -6 -6 -7 -7 -7 -8 -8 -9 -9 -10 -10 -10 -11 -11 -11 -12 -12 -12 -12 -12 -12 -13 -12
3 3 2 2 1 1 0 -0 -1 -1 -2 -2 -3 -4 -4 -5 -5 -6 -6 -6 -6 -7 -7 -7 -8 -8 -9 -9 -9 -10 -10 -10 -11 -12 -12 -12 -12 -12 -12 -12 -13 -13 -12 -12
3 2 1 1 0 -0 -1 -1 -1 -2 -3 -3 -4 -5 -5 -6 -6 -6 -6 -7 -7 -7 -8 -8 -8 -9 -9 -10 -10 -10 -10 -11 -11 -11 -11 -12 -12 -12 -12 -12 -12 -12 -12 -12
2 1 0 -0 -1 -1 -1 -2 -2 -3 -4 -5 -5 -6 -6 -6 -7 -7 -7 -7 -8 -8 -8 -9 -9 -10 -10 -10 -10 -11 -11 -11 -11 -11 -12 -12 -12 -12 -12 -12 -12 -12 -12 -12

GEFSNGP_850_meantemp_024.txt.gz
Temperature
7 8 8 9 9 9 9 9 9 11 12 12 12 11 10 10 9 8 8 7 9 9 9 9 9 9 8 8 7 7 6 6 5 5 5 4 4 3 2 2 1 1 0 -0
8 9 9 9 10 10 9 9 9 11 12 13 11 10 9 10 9 9 8 8 8 9 9 9 9 8 8 7 6 6 6 5 5 4 4 3 3 2 2 1 1 0 -0 -1
9 10 10 10 11 10 10 10 10 12 13 12 12 11 9 10 10 9 9 8 9 10 10 9 9 8 7 6 6 5 5 4 4 4 3 3 2 1 1 1 0 -0 -1 -2
9 10 10 12 12 12 12 12 12 13 13 13 12 10 11 11 11 10 10 9 9 10 9 9 8 7 7 6 5 4 4 4 3 3 2 2 1 1 0 -0 -1 -1 -2 -3
9 10 11 13 12 12 12 12 12 12 11 9 10 10 10 11 12 12 11 11 10 10 10 9 8 7 6 5 4 4 3 3 3 2 1 1 0 -0 -1 -1 -1 -2 -3 -3
9 10 10 13 13 12 12 12 12 11 10 8 10 10 9 10 12 12 11 11 10 10 9 8 7 6 5 4 4 3 3 2 2 1 1 0 -0 -1 -1 -2 -2 -3 -3 -4
9 9 10 11 11 13 12 12 11 10 10 9 9 10 8 9 11 11 11 10 10 9 8 7 6 5 4 4 3 3 2 2 1 0 0 -0 -1 -1 -2 -2 -3 -3 -3 -4
9 9 10 12 12 12 11 10 9 8 9 8 6 7 8 9 10 10 10 9 9 8 7 6 5 4 4 3 2 2 1 1 0 -0 -1 -1 -2 -2 -3 -3 -3 -3 -4 -5
9 10 10 10 11 11 11 10 8 7 8 8 6 6 7 8 9 9 8 8 7 7 5 4 4 3 3 2 2 1 1 0 -0 -1 -1 -2 -2 -3 -3 -3 -4 -4 -6 -7
9 9 9 10 11 11 12 11 10 9 8 9 7 7 7 7 7 7 7 6 6 5 4 3 2 2 2 1 1 0 -0 -1 -1 -1 -2 -2 -3 -3 -3 -4 -5 -6 -8 -8
9 9 8 9 10 11 11 10 9 8 8 9 9 8 7 7 6 6 5 5 5 4 3 2 1 1 1 0 -0 -0 -1 -1 -2 -2 -2 -3 -3 -3 -4 -5 -6 -8 -9 -9
9 9 8 8 9 10 10 9 9 8 7 8 9 8 7 7 6 6 5 4 3 3 2 1 1 0 -0 -1 -1 -1 -1 -2 -2 -3 -3 -3 -3 -4 -4 -6 -6 -7 -8 -9
11 11 10 9 8 9 9 9 9 9 8 8 8 7 7 6 5 5 4 3 3 2 1 1 0 -0 -1 -1 -1 -2 -2 -2 -3 -3 -3 -4 -4 -5 -6 -6 -7 -7 -8 -8
11 10 7 7 7 8 9 8 8 8 7 7 7 7 6 5 4 4 3 2 1 1 0 -0 -1 -1 -2 -2 -2 -2 -3 -3 -3 -4 -4 -5 -5 -6 -7 -8 -8 -8 -8 -9
9 10 9 7 7 8 8 8 7 7 6 6 6 6 5 5 3 2 2 1 0 -0 -1 -1 -1 -2 -2 -2 -3 -3 -3 -3 -4 -4 -5 -5 -6 -7 -8 -9 -9 -9 -9 -9
8 8 7 7 7 7 7 7 7 6 6 6 5 5 4 3 2 1 0 -0 -0 -1 -1 -2 -2 -2 -3 -3 -3 -3 -4 -4 -5 -5 -6 -6 -7 -8 -9 -9 -9 -9 -9 -10
7 4 5 5 6 6 7 7 7 6 6 5 4 4 3 2 1 -0 -1 -1 -1 -2 -2 -2 -3 -3 -3 -3 -4 -4 -4 -5 -5 -6 -7 -7 -8 -9 -9 -9 -10 -10 -10 -10
10 10 9 8 7 6 6 6 6 6 5 4 4 3 2 1 0 -1 -1 -2 -2 -2 -3 -3 -3 -3 -4 -4 -4 -5 -5 -5 -6 -7 -7 -8 -9 -9 -9 -10 -10 -10 -10 -10
8 7 6 6 6 6 6 6 5 5 4 3 3 2 1 0 -1 -1 -2 -2 -3 -3 -3 -4 -4 -4 -4 -5 -5 -5 -6 -6 -7 -7 -8 -9 -9 -9 -10 -10 -10 -10 -11 -11
6 6 5 5 6 6 6 5 4 4 3 2 2 1 -0 -1 -2 -2 -2 -3 -3 -4 -4 -4 -4 -5 -5 -5 -6 -6 -6 -7 -8 -8 -9 -9 -9 -10 -10 -10 -11 -11 -11 -12
4 4 5 5 5 5 5 4 4 3 2 1 1 0 -1 -2 -2 -3 -3 -3 -4 -4 -4 -5 -5 -5 -5 -6 -6 -7 -7 -8 -8 -9 -9 -10 -10 -10 -10 -11 -11 -11 -12 -12
3 4 4 5 4 4 3 3 3 2 1 0 -0 -0 -1 -2 -3 -4 -4 -4 -4 -5 -5 -5 -5 -6 -6 -6 -7 -7 -8 -8 -9 -9 -10 -10 -10 -11 -11 -11 -11 -12 -12 -12
3 4 4 4 4 3 2 2 1 1 0 -0 -1 -1 -2 -3 -3 -3 -4 -4 -5 -5 -6 -6 -6 -6 -6 -7 -7 -8 -8 -9 -9 -10 -10 -10 -11 -11 -11 -12 -12 -12 -12 -12
3 4 3 3 3 2 1 0 -0 -0 -1 -1 -2 -3 -3 -3 -4 -4 -5 -5 -5 -6 -6 -6 -6 -7 -7 -7 -8 -8 -9 -9 -10 -10 -10 -11 -11 -11 -12 -12 -12 -12 -12 -12
4 3 3 2 2 1 0 -0 -1 -1 -2 -2 -3 -4 -4 -4 -4 -5 -5 -6 -6 -6 -6 -7 -7 -7 -8 -8 -9 -9 -9 -10 -10 -10 -11 -11 -11 -12 -12 -12 -12 -12 -12 -12
3 2 2 2 2 1 0 -1 -1 -2 -2 -3 -4 -5 -5 -5 -5 -6 -6 -6 -6 -7 -7 -7 -7 -8 -8 -9 -9 -9 -10 -10 -10 -10 -11 -11 -11 -12 -12 -12 -12 -12 -12 -12
2 1 1 0 0 -0 -1 -1 -2 -3 -3 -3 -4 -5 -5 -6 -6 -6 -6 -6 -7 -7 -7 -8 -8 -8 -9 -9 -9 -10 -10 -10 -10 -11 -11 -11 -12 -12 -12 -12 -12 -12 -12 -12

GEFSNGP_850_meantemp_030.txt.gz
Temperature
6 7 6 6 6 6 6 6 6 7 8 9 10 9 8 8 7 6 5 4 5 6 7 8 9 9 8 8 8 8 8 7 7 6 6 5 5 4 4 3 2 2 1 1
7 7 7 7 7 7 6 7 7 7 8 9 9 8 8 7 6 6 5 4 5 6 7 8 8 8 8 8 8 7 7 7 6 6 5 5 4 4 3 2 2 1 1 0
7 8 7 8 8 8 7 7 7 7 8 9 8 8 8 7 7 6 5 5 5 6 8 8 8 8 8 8 7 7 6 6 5 5 4 4 3 3 2 1 1 0 0 -0
7 8 9 9 9 9 8 9 8 8 8 9 8 8 8 8 7 7 6 5 6 7 7 8 8 8 7 7 7 6 6 5 5 4 3 3 2 2 1 1 0 0 -0 -1
7 8 9 10 9 9 9 9 9 9 9 8 8 8 8 8 8 8 7 7 7 8 8 8 8 7 7 6 6 5 5 4 4 3 3 2 1 1 0 0 -0 -1 -1 -2
8 8 9 10 10 9 9 9 10 9 9 9 8 9 8 8 9 8 8 8 8 8 8 8 7 7 6 6 5 5 4 3 3 2 2 1 0 0 -0 -0 -1 -1 -2 -2
8 8 9 10 9 9 10 10 9 9 9 9 8 7 6 8 9 9 8 8 8 7 7 7 7 6 6 5 4 4 3 2 2 1 1 0 0 -0 -1 -1 -1 -2 -2 -3
7 8 9 9 9 9 9 9 8 8 8 8 6 5 6 7 8 8 8 7 7 7 6 6 6 6 5 4 3 3 2 2 1 1 0 -0 -0 -1 -1 -2 -2 -3 -3 -3
7 8 8 8 8 9 8 8 7 6 7 7 5 5 5 6 7 7 7 7 7 7 6 5 5 5 4 3 2 2 1 1 0 0 -0 -1 -1 -1 -2 -2 -3 -3 -4 -5
7 7 8 9 9 8 8 7 7 6 6 7 6 5 5 5 6 6 6 6 6 6 5 4 4 3 3 2 2 1 1 0 -0 -1 -1 -1 -2 -2 -2 -3 -4 -5 -6 -7
7 8 8 9 8 8 8 7 6 6 6 7 7 5 5 5 5 6 6 5 5 5 4 3 2 2 2 1 1 0 0 -0 -1 -1 -2 -2 -2 -3 -3 -4 -5 -7 -7 -8
9 9 8 8 7 8 8 7 7 7 5 6 7 6 6 6 6 6 5 5 4 4 3 2 1 1 1 0 -0 -0 -1 -1 -1 -2 -2 -3 -3 -3 -4 -5 -6 -7 -7 -8
10 9 8 7 7 7 8 7 7 7 7 6 6 7 7 6 5 5 4 4 3 3 2 1 1 0 -0 -1 -1 -1 -1 -2 -2 -2 -3 -3 -4 -4 -5 -5 -6 -6 -7 -8
9 9 7 7 7 7 7 7 7 7 7 7 7 6 6 5 4 4 3 2 2 2 1 0 0 -0 -1 -1 -1 -2 -2 -2 -3 -3 -4 -4 -5 -6 -6 -7 -7 -7 -7 -8
8 9 9 8 7 6 7 7 7 7 7 6 6 6 5 4 3 2 2 1 1 1 0 -0 -1 -1 -2 -2 -2 -2 -3 -3 -4 -4 -5 -5 -6 -6 -7 -8 -8 -8 -8 -9
8 8 8 7 7 6 6 7 7 6 6 6 5 5 4 4 2 2 1 1 0 -0 -1 -1 -1 -2 -2 -2 -3 -3 -3 -4 -4 -5 -5 -6 -7 -7 -8 -8 -9 -9 -9 -9
7 5 5 5 6 6 7 8 8 7 6 6 5 4 3 3 2 1 0 -0 -0 -1 -1 -2 -2 -2 -3 -3 -3 -4 -4 -5 -5 -6 -6 -7 -7 -8 -9 -9 -9 -10 -10 -10
9 9 9 9 8 7 7 7 7 7 6 5 4 3 3 2 1 0 -1 -1 -1 -2 -2 -3 -3 -3 -3 -4 -4 -4 -5 -5 -6 -6 -7 -8 -8 -9 -9 -10 -10 -10 -10 -10
8 8 7 7 7 7 7 7 7 6 5 5 4 3 2 1 1 -0 -1 -1 -2 -2 -3 -3 -4 -4 -4 -4 -5 -5 -5 -6 -6 -7 -8 -8 -9 -9 -10 -10 -10 -10 -11 -11
7 7 7 7 7 7 7 7 6 6 5 4 3 2 1 0 -0 -1 -2 -2 -3 -3 -3 -4 -4 -4 -5 -5 -5 -6 -6 -7 -7 -8 -8 -9 -9 -10 -10 -10 -11 -11 -11 -11
6 6 5 6 6 6 6 6 6 5 4 3 3 2 1 -1 -1 -2 -2 -3 -3 -4 -4 -4 -5 -5 -5 -5 -6 -6 -7 -7 -8 -9 -9 -10 -10 -10 -10 -11 -11 -11 -11 -12
4 4 5 5 6 6 5 5 5 4 3 2 2 1 0 -1 -2 -3 -3 -3 -4 -4 -4 -5 -5 -5 -6 -6 -6 -7 -7 -8 -9 -9 -9 -10 -10 -10 -11 -11 -11 -11 -12 -12
3 3 4 5 5 5 4 4 4 3 2 2 1 0 -0 -1 -2 -3 -3 -4 -4 -5 -5 -5 -5 -6 -6 -6 -7 -8 -8 -9 -9 -9 -10 -10 -10 -11 -11 -11 -11 -12 -12 -12
2 3 4 4 5 4 3 3 2 2 1 0 -1 -1 -1 -2 -3 -4 -4 -4 -5 -5 -5 -6 -6 -6 -7 -7 -8 -8 -9 -9 -9 -10 -10 -10 -11 -11 -11 -11 -11 -12 -12 -12
2 3 4 4 4 4 3 2 1 0 -0 -1 -2 -3 -3 -3 -3 -4 -4 -5 -5 -5 -6 -6 -6 -7 -7 -8 -8 -9 -9 -9 -9 -10 -10 -10 -11 -11 -11 -11 -12 -12 -12 -11
2 2 3 4 4 3 2 1 1 -0 -1 -2 -2 -3 -4 -4 -4 -5 -5 -5 -5 -6 -6 -6 -7 -7 -8 -8 -9 -9 -9 -9 -10 -10 -10 -10 -11 -11 -11 -11 -12 -12 -11 -11
2 2 3 3 3 2 2 1 1 -0 -1 -1 -2 -3 -4 -5 -5 -5 -5 -6 -6 -6 -7 -7 -7 -8 -8 -8 -9 -9 -9 -9 -10 -10 -10 -11 -11 -11 -11 -11 -11 -11 -11 -11

GEFSNGP_850_meantemp_036.txt.gz
Temperature
7 8 8 8 8 7 6 6 7 9 10 11 11 11 10 10 9 9 7 6 5 5 4 4 4 5 7 9 9 9 8 8 8 7 7 7 7 6 5 5 4 3 3 2
7 9 9 9 9 8 7 7 7 7 8 10 10 9 9 9 8 8 7 5 4 4 3 4 4 5 7 8 8 8 8 7 7 7 7 6 6 5 4 3 3 2 2 1
8 10 9 9 9 8 8 8 8 7 9 10 9 9 8 8 7 7 6 4 3 3 3 4 4 6 7 7 7 7 7 7 7 6 6 5 5 4 3 2 2 1 1 1
7 8 9 11 10 9 8 9 9 9 9 9 9 8 7 6 6 6 5 4 3 3 2 3 4 5 6 6 6 7 7 6 6 6 5 4 3 3 2 1 1 1 0 -0
7 8 10 11 10 9 8 9 9 9 9 9 9 8 7 5 5 5 5 4 3 3 3 4 4 5 6 6 6 6 6 6 5 4 4 3 2 2 1 1 0 -0 -0 -1
7 8 10 11 11 9 8 10 9 8 9 9 9 10 7 4 5 4 4 4 4 3 4 4 5 5 6 6 6 6 5 5 4 3 3 2 1 1 0 -0 -0 -1 -1 -1
7 8 10 12 10 10 10 10 9 8 8 8 8 6 4 3 4 4 4 4 4 4 4 5 5 5 6 5 5 5 4 3 3 2 1 1 0 -0 -0 -1 -1 -1 -1 -2
8 9 10 12 10 10 10 9 7 6 6 5 4 3 3 3 3 4 3 3 4 4 4 4 5 5 5 5 4 4 3 2 2 1 1 0 -0 -1 -1 -1 -2 -2 -2 -3
10 11 12 9 9 8 6 6 5 5 4 4 3 2 2 3 3 3 3 3 4 5 4 4 4 5 5 4 3 3 2 1 1 0 -0 -1 -1 -1 -2 -2 -2 -3 -3 -4
10 11 11 9 8 6 5 4 4 4 3 4 3 2 2 2 2 3 3 3 3 4 4 3 4 4 4 3 2 2 1 1 0 -0 -1 -1 -2 -2 -2 -3 -3 -4 -5 -6
10 11 11 9 6 6 5 4 4 4 4 3 4 3 3 3 3 3 3 3 3 4 4 3 3 3 2 2 1 1 0 -0 -1 -1 -1 -2 -2 -2 -3 -3 -4 -5 -6 -7
12 11 11 9 6 6 5 4 4 4 3 3 4 3 4 3 3 3 3 3 3 3 3 2 2 2 1 0 0 0 -0 -1 -1 -2 -2 -2 -3 -3 -3 -4 -5 -6 -7 -7
10 8 7 6 6 5 5 4 4 4 4 3 3 4 4 4 3 3 3 3 3 3 2 1 1 0 -0 -1 -1 -1 -1 -1 -2 -2 -2 -3 -3 -4 -4 -4 -5 -6 -7 -8
8 8 7 6 5 5 5 4 4 4 4 4 4 4 4 4 3 3 3 2 2 2 1 1 0 -0 -1 -1 -1 -1 -2 -2 -2 -3 -3 -4 -4 -5 -5 -6 -6 -7 -7 -8
7 7 7 7 6 5 5 5 5 4 4 4 4 4 4 4 3 2 2 2 1 1 0 -0 -0 -1 -2 -2 -2 -2 -2 -3 -3 -3 -4 -4 -5 -5 -6 -7 -8 -8 -8 -9
7 6 7 6 5 5 5 5 6 5 4 4 4 4 3 3 2 2 1 1 1 -0 -1 -1 -1 -2 -2 -2 -3 -3 -3 -3 -4 -4 -5 -5 -6 -6 -7 -8 -9 -9 -10 -10
6 4 4 4 5 5 5 6 6 6 5 4 4 3 3 2 1 1 0 -0 -0 -1 -1 -2 -2 -2 -3 -3 -3 -3 -3 -4 -4 -5 -5 -6 -7 -7 -8 -9 -9 -10 -10 -10
7 8 8 8 7 6 5 6 6 6 5 4 3 3 2 1 1 -0 -1 -1 -1 -2 -2 -3 -3 -3 -3 -3 -3 -4 -4 -4 -5 -5 -6 -7 -8 -8 -9 -9 -10 -10 -10 -10
7 7 7 6 7 7 7 6 6 5 5 4 3 2 2 1 0 -1 -1 -1 -1 -2 -3 -3 -3 -3 -3 -4 -4 -4 -5 -5 -6 -6 -7 -8 -8 -9 -9 -10 -10 -10 -11 -11
6 7 6 6 6 6 7 6 6 5 4 4 3 2 1 0 -0 -1 -1 -2 -2 -2 -3 -3 -4 -4 -4 -4 -4 -5 -5 -6 -6 -7 -8 -8 -9 -9 -10 -10 -10 -11 -11 -11
5 6 6 6 6 6 6 6 6 5 4 3 3 2 1 -0 -1 -1 -2 -2 -3 -3 -3 -4 -4 -4 -4 -5 -5 -5 -6 -6 -7 -8 -8 -9 -9 -10 -10 -10 -11 -11 -11 -11
4 4 5 5 5 5 5 5 5 5 4 2 2 1 0 -1 -2 -2 -2 -2 -3 -3 -4 -4 -4 -4 -5 -5 -5 -6 -6 -7 -8 -8 -9 -9 -10 -10 -10 -11 -11 -11 -11 -11
3 3 4 4 5 5 5 5 4 4 3 2 2 1 0 -1 -1 -2 -2 -3 -3 -4 -4 -4 -5 -5 -5 -6 -6 -6 -7 -8 -8 -9 -9 -10 -10 -10 -11 -11 -11 -11 -11 -11
2 2 3 3 4 4 4 4 3 3 2 2 1 0 -0 -1 -2 -2 -2 -3 -3 -4 -4 -5 -5 -5 -6 -6 -6 -7 -7 -8 -8 -9 -9 -10 -10 -10 -11 -11 -11 -11 -11 -11
1 2 2 3 3 4 4 3 2 2 1 0 -0 -1 -1 -1 -2 -2 -3 -4 -4 -4 -5 -5 -5 -6 -6 -6 -7 -7 -8 -8 -9 -9 -10 -10 -10 -11 -11 -11 -11 -11 -11 -11
1 1 1 2 3 4 3 3 2 1 0 -1 -1 -2 -3 -3 -3 -3 -4 -4 -4 -5 -5 -5 -6 -6 -6 -7 -7 -8 -8 -9 -9 -9 -10 -10 -10 -11 -11 -11 -11 -11 -11 -10
-1 -0 0 1 2 2 2 2 2 1 0 -0 -1 -2 -3 -3 -3 -4 -4 -4 -5 -5 -5 -6 -6 -6 -7 -7 -8 -8 -9 -9 -9 -10 -10 -10 -10 -10 -10 -11 -10 -10 -10 -10